This demonstration page uses our WeatherBlox Daily Observations layout. Learn more.

Left ArrowRight Arrow

Hourly Observations for January 20, 2018

Temp ( °F °C ) Dew Point ( °F °C ) Humidity (%) Winds ( mph kmh ) Pressure ( in mb ) Visibility ( mi km ) Precip ( " mm )
12:53 am 00:53 Clear 30 -1.1 26 -3.3 85 85 NNE 6 9 29.78 1009 10 16 0.00 0.00
1:53 am 01:53 Clear 31 -0.6 27 -2.8 85 85 NNE 9 15 29.78 1008 10 16 0.00 0.00
2:53 am 02:53 Clear 29 -1.7 27 -2.8 92 92 N 6 9 29.79 1009 10 16 0.00 0.00
3:53 am 03:53 Clear 30 -1.1 27 -2.8 88 88 NE 5 7 29.79 1009 10 16 0.00 0.00
4:53 am 04:53 Clear 28 -2.2 26 -3.3 92 92 ENE 6 9 29.79 1009 10 16 0.00 0.00
5:53 am 05:53 Clear 27 -2.8 24 -4.4 89 89 NE 7 11 29.80 1009 10 16 0.00 0.00
6:53 am 06:53 Clear 28 -2.2 25 -3.9 88 88 NE 6 9 29.84 1010 10 16 0.00 0.00
7:53 am 07:53 Sunny 29 -1.7 26 -3.3 89 89 NE 8 13 29.83 1010 10 16 0.00 0.00
8:53 am 08:53 Sunny 31 -0.6 27 -2.8 85 85 NE 9 15 29.85 1011 10 16 0.00 0.00
9:53 am 09:53 Sunny 34 1.1 30 -1.1 85 85 ENE 8 13 29.87 1011 10 16 0.00 0.00
10:53 am 10:53 Sunny 38 3.3 31 -0.6 76 76 NE 12 19 29.87 1012 10 16 0.00 0.00
11:53 am 11:53 Sunny 42 5.6 31 -0.6 65 65 NE 10 17 29.86 1011 10 16 0.00 0.00
12:53 pm 12:53 Sunny 44 6.7 31 -0.6 60 60 ENE 9 15 29.83 1010 10 16 0.00 0.00
1:53 pm 13:53 Sunny 46 7.8 31 -0.6 56 56 ENE 9 15 29.79 1009 10 16 0.00 0.00
2:53 pm 14:53 Sunny 48 8.9 32 0 54 54 ENE 12 19 29.80 1009 10 16 0.00 0.00
3:53 pm 15:53 Sunny 48 8.9 30 -1.1 50 50 ENE 12 19 29.80 1009 10 16 0.00 0.00
4:53 pm 16:53 Sunny 45 7.2 29 -1.7 54 54 E 12 19 29.81 1009 10 16 0.00 0.00
5:53 pm 17:53 Clear 40 4.4 34 1.1 79 79 ESE 7 11 29.84 1011 10 16 0.00 0.00
6:53 pm 18:53 Clear 37 2.8 34 1.1 89 89 Calm 29.88 1012 10 16 0.00 0.00
7:53 pm 19:53 Clear 31 -0.6 28 -2.2 89 89 N 5 7 29.89 1012 8 13 0.00 0.00
8:53 pm 20:53 Clear with Mist and Fog 30 -1.1 28 -2.2 92 92 Calm 29.88 1012 6 10 0.00 0.00
9:32 pm 21:32 Mostly Cloudy with Mist and Fog 30 -1 28 -2 93 93 N 5 7 29.91 1013 6 10 0.00 0.00
9:53 pm 21:53 Cloudy 33 0.6 31 -0.6 92 92 NNE 6 9 29.86 1011 7 11 0.00 0.00
10:04 pm 22:04 Cloudy 34 1 30 -1 87 87 NNE 6 9 29.88 1012 7 11 0.00 0.00
10:53 pm 22:53 Cloudy 35 1.7 32 0 89 89 NNE 6 9 29.85 1011 10 16 0.00 0.00
11:53 pm 23:53 Cloudy 35 1.7 30 -1.1 82 82 NNE 12 19 29.85 1011 10 16 0.00 0.00

Powered by AerisWeather